DateTimeUTC,F1_A11,F1_S11,BsB_S11,BsG_S11,BsR_S11,BbsB_S11,BbsG_S11,BbsR_S11,BaB_A11,BaG_A11,BaR_A11,Tu_S11,T_S11,Uu_S11,U_S11,P_S11,T1_A11
2021-02-02T22:00:00Z,00000200,21000000,,,,,,,0000.03,0000.08,-000.10,14.9,22.3,,00.0,0630.0,30.8
2021-02-02T22:01:00Z,00000200,21000000,,,,,,,-000.18,-000.31,-000.02,14.8,22.3,,00.0,0630.0,30.8
2021-02-02T22:02:00Z,00000200,21000000,,,,,,,0000.03,-000.03,0000.30,14.8,22.3,,00.0,0630.0,30.8
2021-02-02T22:03:00Z,00000200,61000000,,,,,,,0000.09,-000.06,-000.19,14.8,22.3,,00.0,0630.0,30.8
2021-02-02T22:04:00Z,00000200,41000000,0000.86,0000.53,-000.33,-000.29,-000.02,-000.08,-000.02,0000.11,0000.22,15.1,22.1,,00.0,0630.8,30.8
2021-02-02T22:05:00Z,00000200,01000000,0000.72,0000.36,-000.03,0000.52,0000.01,0000.04,0000.22,0000.14,-000.27,15.2,22.1,,00.0,0630.9,30.8
2021-02-02T22:06:00Z,00000200,01000000,0000.79,0000.49,0000.20,0000.42,0000.16,0000.15,0000.34,0000.08,0000.56,15.2,22.1,,00.0,0630.9,30.8
2021-02-02T22:07:00Z,00000200,01000000,0000.60,0000.17,0000.13,-000.00,0000.28,0000.22,-000.05,0000.45,0000.20,15.3,22.1,,00.0,0631.0,30.8
2021-02-02T22:08:00Z,00000200,01000000,0000.29,0000.33,0000.06,0000.55,0000.10,0000.21,-000.01,0000.09,-000.33,15.3,22.1,,00.0,0631.0,30.8
2021-02-02T22:09:00Z,00000200,01000000,0000.64,0000.30,-000.35,0000.47,0000.14,-000.02,-000.06,0000.24,0000.13,15.4,22.1,,00.0,0631.1,30.8
2021-02-02T22:10:00Z,00000200,01000000,0000.98,0000.39,0000.10,0000.16,0000.18,0000.22,-000.09,-000.51,0000.16,15.4,22.1,,00.0,0631.1,30.8
2021-02-02T22:11:00Z,00000200,01000000,0000.72,0000.19,0000.08,0000.39,0000.15,0000.02,0000.62,0000.61,0000.08,15.5,22.2,,00.0,0631.1,30.8
2021-02-02T22:12:00Z,00000200,01000000,0000.56,0000.42,-000.01,0000.53,0000.23,0000.21,-000.03,-000.00,-000.10,15.5,22.2,,00.0,0631.1,30.8
2021-02-02T22:13:00Z,00000200,01000000,0000.26,0000.29,0000.17,0000.17,0000.14,0000.10,-000.14,-000.12,0000.06,15.6,22.2,,00.0,0631.1,30.9
2021-02-02T22:14:00Z,00000200,01000000,0000.87,0000.22,0000.05,0000.35,0000.26,-000.02,-000.13,0000.05,-000.09,15.6,22.2,,00.0,0631.1,30.8
2021-02-02T22:15:00Z,00000200,01000000,0000.57,0000.39,0000.03,0000.71,0000.30,0000.06,0000.10,0000.02,0000.26,15.5,22.2,,00.0,0631.0,30.8
2021-02-02T22:16:00Z,00000200,01000000,0000.03,0000.16,-000.04,0000.34,0000.07,0000.26,-000.09,-000.10,-000.25,15.5,22.2,,00.0,0631.0,30.8
2021-02-02T22:17:00Z,00000200,01000000,-000.08,0000.34,-000.23,-000.12,0000.09,0000.05,0000.31,-000.00,0000.08,15.5,22.2,,00.0,0631.0,30.8
2021-02-02T22:18:00Z,00000200,01000000,0001.03,0000.17,0000.02,-000.25,0000.23,0000.13,0000.19,0000.23,0000.33,15.5,22.2,,00.0,0631.0,30.8
2021-02-02T22:19:00Z,00000200,01000000,0000.93,0000.29,-000.02,0000.21,0000.15,0000.08,0000.11,0000.08,0000.21,15.5,22.2,,00.0,0631.0,30.8
2021-02-02T22:20:00Z,00000200,01000000,0000.55,0000.24,0000.08,0000.47,0000.14,0000.00,0000.38,0000.35,0000.27,15.6,22.2,,00.0,0631.1,30.8
2021-02-02T22:21:00Z,00000200,01000000,0000.07,0000.05,0000.41,0000.46,0000.05,0000.17,-000.10,0000.03,-000.11,15.6,22.2,,00.0,0631.0,30.8
2021-02-02T22:22:00Z,00000200,01000000,0000.40,0000.15,0000.01,0000.58,0000.36,0000.10,0000.18,0000.17,-000.14,15.6,22.3,,00.0,0631.1,30.8
2021-02-02T22:23:00Z,00000200,01000000,-000.37,0000.40,0000.11,0000.59,0000.16,0000.19,0000.19,-000.01,0000.24,15.7,22.3,,00.0,0631.1,30.9
2021-02-02T22:24:00Z,00000200,01000000,0000.27,0000.26,-000.06,0000.69,0000.43,-000.25,-000.23,0000.05,0000.08,15.7,22.3,,00.0,0631.2,30.9
2021-02-02T22:25:00Z,00000200,01000000,0000.01,0000.12,0000.31,0000.29,-000.00,0000.21,0000.04,-000.02,0000.07,15.7,22.3,,00.0,0631.3,30.8
2021-02-02T22:26:00Z,00000200,01000000,0001.00,0000.21,0000.19,0000.30,-000.03,0000.01,-000.05,0000.19,-000.44,15.7,22.3,,00.0,0631.3,30.8
2021-02-02T22:27:00Z,00000200,01000000,-000.19,0000.55,-000.08,-000.49,0000.42,-000.04,-000.11,0000.13,0000.46,15.6,22.3,,00.0,0631.2,30.8
2021-02-02T22:28:00Z,00000200,01000000,0000.07,0000.22,0000.14,0000.03,0000.09,0000.22,0000.13,0000.01,-000.12,15.5,22.2,,00.0,0631.2,30.8
2021-02-02T22:29:00Z,00000200,01000000,0000.49,0000.06,0000.02,-000.17,0000.17,0000.10,0000.32,-000.42,-000.18,15.4,22.2,,00.0,0631.1,30.8
2021-02-02T22:30:00Z,00000200,01000000,0000.10,0000.28,-000.20,0000.73,0000.20,0000.14,-000.24,0000.36,0000.27,15.3,22.2,,00.0,0631.1,30.8
2021-02-02T22:31:00Z,00000200,01000000,0000.97,0000.29,0000.04,-000.40,0000.13,-000.05,0000.30,-000.29,-000.19,15.3,22.1,,00.0,0631.1,30.8
2021-02-02T22:32:00Z,00000200,01000000,0000.59,0000.31,-000.09,0000.49,0000.03,-000.09,0000.44,0000.15,0000.71,15.3,22.1,,00.0,0631.0,30.8
2021-02-02T22:33:00Z,00000200,01000000,0000.88,0000.54,0000.14,0000.37,-000.01,-000.01,0000.18,0000.29,-000.25,15.3,22.1,,00.0,0631.0,30.8
2021-02-02T22:34:00Z,00000200,01000000,-000.12,0000.14,-000.08,0000.17,0000.26,0000.12,0000.22,0000.49,0000.38,15.4,22.1,,00.0,0631.0,30.8
2021-02-02T22:35:00Z,00000200,01000000,0000.54,0000.15,0000.12,0000.12,0000.17,0000.04,-000.04,-000.21,-000.17,15.4,22.1,,00.0,0631.0,30.8
2021-02-02T22:36:00Z,00000200,01000000,0001.17,0000.59,0000.02,0000.01,0000.20,0000.03,0000.28,0000.62,0000.40,15.4,22.2,,00.0,0631.0,30.8
2021-02-02T22:37:00Z,00000200,01000000,-000.07,0000.22,-000.04,0000.47,0000.19,0000.02,-000.12,-000.35,-000.18,15.5,22.2,,00.0,0631.0,30.8
2021-02-02T22:38:00Z,00000200,01000000,0000.26,0000.16,0000.12,0000.46,0000.10,0000.31,0000.15,0000.83,0000.09,15.5,22.2,,00.0,0631.0,30.8
2021-02-02T22:39:00Z,00000200,01000000,0000.28,0000.44,-000.01,0000.24,0000.26,0000.22,0000.29,-000.26,0000.17,15.6,22.2,,00.0,0631.0,30.8
2021-02-02T22:40:00Z,00000200,01000000,0000.09,-000.00,-000.04,0000.39,-000.11,0000.00,0000.23,0000.36,0000.59,15.6,22.2,,00.0,0631.1,30.8
2021-02-02T22:41:00Z,00000200,01000000,0000.47,0000.50,-000.17,0000.57,0000.13,0000.05,0000.17,-000.16,-000.40,15.7,22.3,,00.0,0631.1,30.8
2021-02-02T22:42:00Z,00000200,01000000,0000.07,0000.46,0000.29,0000.38,0000.20,0000.25,-000.14,0000.13,-000.21,15.7,22.3,,00.0,0631.0,30.8
2021-02-02T22:43:00Z,00000200,01000000,0000.42,0000.33,-000.02,-000.32,0000.03,-000.06,0000.15,0000.19,0000.23,15.7,22.3,,00.0,0631.0,30.8
2021-02-02T22:44:00Z,00000200,01000000,0000.45,0000.35,0000.07,0000.14,0000.05,0000.07,0000.25,0000.36,0000.29,15.6,22.3,,00.0,0630.9,30.8
2021-02-02T22:45:00Z,00000200,01000000,0000.27,0000.29,-000.11,0000.28,0000.12,-000.11,-000.11,-000.07,0000.08,15.5,22.2,,00.0,0630.9,30.8
2021-02-02T22:46:00Z,00000200,01000000,0000.71,0000.37,0000.27,-000.28,0000.14,-000.04,0000.41,-000.42,-000.09,15.4,22.2,,00.0,0630.9,30.8
2021-02-02T22:47:00Z,00000200,01000000,-000.00,0000.38,0000.22,-000.50,-000.12,0000.08,0000.27,0000.67,0000.12,15.4,22.1,,00.0,0630.9,30.8
2021-02-02T22:48:00Z,00000200,01000000,0000.41,0000.17,0000.03,0000.11,0000.32,-000.08,0000.10,-000.37,0000.02,15.5,22.2,,00.0,0630.9,30.8
2021-02-02T22:49:00Z,00000200,01000000,0000.79,0000.06,-000.10,0000.12,-000.05,0000.04,0000.42,0000.05,0000.24,15.5,22.2,,00.0,0630.9,30.8
2021-02-02T22:50:00Z,00000200,01000000,0000.61,0000.36,-000.13,0000.62,0000.31,0000.04,-000.10,0000.80,0000.46,15.6,22.2,,00.0,0630.9,30.8
2021-02-02T22:51:00Z,00000200,01000000,0000.28,0000.02,0000.07,-000.24,0000.31,0000.30,0000.39,0000.23,0000.20,15.6,22.2,,00.0,0630.9,30.8
2021-02-02T22:52:00Z,00000200,01000000,0000.59,0000.12,0000.14,0000.11,0000.08,0000.24,-000.01,0000.28,-000.11,15.7,22.3,,00.0,0630.9,30.8
2021-02-02T22:53:00Z,00000200,01000000,0000.90,0000.06,0000.26,-000.12,0000.23,0000.15,0000.65,0000.46,0000.09,15.7,22.3,,00.0,0630.9,30.8
2021-02-02T22:54:00Z,00000200,01000000,-000.22,0000.16,-000.07,0000.36,0000.06,-000.07,-000.26,0000.07,0000.04,15.7,22.3,,00.0,0631.0,30.9
2021-02-02T22:55:00Z,00000200,01000000,0000.14,0000.16,-000.12,0000.81,0000.05,0000.10,0000.41,0000.01,0000.24,15.8,22.3,,00.0,0631.0,30.9
2021-02-02T22:56:00Z,00000200,01000000,0000.23,0000.41,0000.28,0000.17,0000.08,0000.20,-000.02,0000.10,0000.24,15.8,22.4,,00.0,0631.0,30.9
2021-02-02T22:57:00Z,00000200,41000000,,,,,,,-000.15,0000.07,-000.23,15.8,22.4,,00.0,0630.9,30.8
2021-02-02T22:58:00Z,00000200,61000000,,,,,,,0000.16,-000.24,-000.23,15.3,22.5,,00.0,0630.1,30.8
2021-02-02T22:59:00Z,00000200,21000000,,,,,,,-000.12,0000.22,0000.10,15.3,22.6,,00.0,0630.2,30.8
